Location: Knobs
(40.8333°S, 175.2333°E)
Time: 15:23:44
(UTC+00:00)

Daily predictions for brighter satellites

Satellite Brightness Start Highest point End
(mag) Time Altitude Azimuth Time Altitude Azimuth Time Altitude Azimuth
USA 59 Rocket 3.6 15:15:11 21° SSE 15:15:11 21° SSE 15:21:24 10° ESE
ATLAS 5 CENTAUR R/B 4.3 16:09:24 53° NNE 16:09:24 53° NNE 16:23:30 10° NNE
Cosmos 2369 Rocket 4.0 16:09:35 27° ESE 16:09:35 27° ESE 16:13:27 10° ENE
Cosmos 1943 4.5 16:35:56 20° NNE 16:39:16 38° ENE 16:44:30 10° SE
ATLAS 3B R/B 4.2 16:49:09 19° N 16:49:09 19° N 16:50:59 10° N
USA 229 DEB 3.5 16:51:29 75° NE 16:51:29 75° NE 16:56:57 10° NE
USA 229 3.5 16:51:35 75° NE 16:51:35 75° NE 16:57:04 10° NE
Cosmos 2061 Rocket 3.9 17:03:46 71° SSW 17:04:29 82° W 17:10:56 10° N
USA 59 Rocket 2.7 17:01:45 19° SSW 17:08:17 41° SE 17:15:31 10° ENE
PSLV R/B 4.2 17:07:01 10° NNE 17:11:13 54° ESE 17:11:19 54° ESE
DMSP B5D2-2 4.0 17:09:08 10° SSE 17:18:03 21° NNW 17:19:43 10° NNW
SL-19 R/B 4.4 17:08:42 10° N 17:15:00 68° WNW 17:15:38 64° WSW
OAO 3 Rocket 4.0 17:16:05 42° N 17:16:05 42° N 17:20:32 10° ENE
USA 215 3.5 17:11:19 10° NNE 17:17:34 47° NW 17:17:48 47° WNW
SL-8 R/B 4.3 17:22:42 46° S 17:22:54 46° SSE 17:27:36 10° E
Meteor 1-20 Rocket 4.1 17:23:48 36° SSW 17:26:17 84° W 17:32:00 10° N
Lacrosse 4 Rocket 3.6 17:29:45 14° S 17:32:04 20° SE 17:35:11 10° E
Tiangong -0.3 17:34:42 27° NNE 17:34:44 27° NNE 17:37:31 10° E
Cosmos 2233 Rocket 4.0 17:34:01 46° WSW 17:35:03 51° W 17:41:00 10° NNW
Spot 4 Rocket 3.9 17:30:03 10° N 17:35:11 76° WNW 17:37:18 37° SSW
H-2A R/B 4.0 17:32:45 19° NW 17:35:12 24° N 17:42:28 10° NE
Cosmos 1624 Rocket 4.1 17:37:51 52° W 17:38:02 52° WNW 17:43:08 10° N
Cosmos 2056 Rocket 3.7 17:41:52 47° W 17:42:03 47° WNW 17:47:08 10° N
Cosmos 2221 4.2 17:40:15 10° NNE 17:44:06 34° E 17:48:00 10° SSE
Cosmos 1452 Rocket 4.2 17:40:01 13° S 17:44:41 52° ESE 17:49:49 10° NE
Cosmos 1656 Rocket 4.2 17:46:05 36° WNW 17:46:05 36° WNW 17:50:48 10° N
DELTA 2 R/B (1) 3.5 17:46:25 41° W 17:48:24 80° N 17:53:59 10° E
CZ-2C R/B 3.9 17:46:04 10° NE 17:49:36 41° ESE 17:53:12 10° S
Cosmos 1048 Rocket 3.9 17:46:32 10° NNW 17:51:55 77° WSW 17:57:22 10° SSE
Helios 1B rocket 3.9 17:48:40 10° NE 17:52:15 35° ESE 17:55:54 10° S
Cosmos 2369 Rocket 2.5 17:51:25 37° WSW 17:52:47 44° WNW 17:58:07 10° N
Radarsat 4.5 17:51:50 10° NNE 17:57:03 88° WNW 18:02:22 10° SSW
Cosmos 2297 4.5 17:57:31 30° W 17:57:44 30° WNW 18:02:38 10° NNW
BREEZE-M DEB (TANK) 3.9 18:03:12 26° SW 18:05:04 37° S 18:15:02 10° ESE
Meteor 1-31 Rocket 3.3 18:01:50 10° NNE 18:05:34 58° ESE 18:09:20 10° S
SL-16 R/B 4.0 18:08:23 13° SSW 18:08:23 13° SSW 18:09:48 10° SSW
Cosmos 1603 3.7 18:04:38 10° NW 18:10:14 61° WSW 18:15:52 10° SSE
CORIOLIS 4.2 18:07:24 10° N 18:12:41 58° W 18:18:03 10° SSW
Cosmos 1110 Rocket 3.9 18:08:28 11° SSW 18:13:32 88° WNW 18:18:47 10° NNE
Lacrosse 5 rocket 3.3 18:11:31 12° S 18:13:33 17° SSE 18:15:58 10° ESE
SMAP 3.3 18:12:54 10° N 18:17:24 46° W 18:21:34 12° SSW
Centaur D-1A AC-31 3.5 18:15:40 10° NW 18:19:17 25° NNE 18:27:57 10° ENE
Cosmos 2034 Rocket 4.2 18:14:47 10° S 18:21:06 78° E 18:27:16 10° N
Cosmos 1943 3.9 18:18:19 10° WNW 18:23:19 31° WSW 18:28:24 10° S
Cosmos 1766 Rocket 4.0 18:20:31 10° S 18:24:53 63° E 18:29:14 10° NNE
Cosmos 1378 4.1 18:24:51 10° NW 18:32:30 - S 18:26:51 22° W
Meteor 1-26 Rocket 4.2 18:25:55 10° NNW 18:31:19 57° WSW 18:37:00 10° S
Cosmos 1933 4.4 18:28:27 10° NW 18:31:36 22° WSW 18:34:47 10° SSW
SKYMED 2 3.5 18:29:44 10° SSE 18:34:10 86° WSW 18:38:33 10° NNW
Meteor 2-16 Rocket 4.5 18:31:35 10° NNW 18:37:40 62° W 18:43:50 10° S
CZ-4B R/B 4.1 18:36:16 10° N 18:40:10 52° W 18:44:18 10° SSW
Cosmos 1818 3.8 18:39:46 10° NW 18:44:57 47° SW 18:50:09 10° SSE
IGS 5A 3.4 18:46:09 10° N 18:50:15 70° W 18:54:24 10° SSW
Cosmos 1726 2.3 18:47:29 10° S 18:50:39 59° E 18:53:45 10° NNE
H-2A R/B (2) 4.4 18:49:24 10° NNW 18:53:14 25° NE 19:03:55 10° E
USA 59 Rocket 1.7 18:49:53 10° SW 18:59:09 63° WNW 19:05:53 10° NNE
Tsikada Rocket 4.0 18:53:15 10° NNW 18:59:31 70° W 19:05:48 10° S
ADEOS Rocket 2.9 18:56:36 10° N 19:02:31 62° WNW 19:08:06 10° SSW
Cosmos 1833 Rocket 3.9 18:59:21 10° N 19:04:45 48° ENE 19:10:12 10° SE
Okean 3 Rocket 3.7 19:00:47 10° S 19:05:24 86° W 19:09:56 10° N
SL-8 R/B 4.1 19:00:42 10° WSW 19:05:28 55° NW 19:10:11 10° NE
Landsat 7 3.9 19:05:02 10° NNE 19:09:45 85° ESE 19:14:34 10° SSW
Lacrosse 4 Rocket 2.0 19:06:35 10° SW 19:10:29 38° WNW 19:14:17 10° N
Tiangong -2.1 19:08:08 10° WNW 19:11:20 86° N 19:14:33 10° E
Cosmos 1743 3.6 19:11:00 10° SSW 19:14:10 27° W 19:17:17 10° NNW
Meteor 1-11 Rocket 4.1 19:10:01 10° S 19:15:42 72° E 19:21:14 10° NNE
